#datint,netname,site,siteID,timestamp,IntT,BattV,AirT2,AirT,AirT_Avg,AirT_Max,AirT_Min,RH_Avg,RH_Max,RH_Min,EA_Avg,Td_Avg,Td_Max,Td_Min,WindS_Smp,WindS_Avg,WindD_Avg,WindD_SD,WindS_Max,ETo,ETr,SoilT4,SoilT8,SoilVWC8,SolarW_Avg,wetstate_Avg,wetT_Avg,Precip_accum,Precip_WPG,Precip_TB
15min,AgWx,beryljct,423,02JUL2019:00:00:00,59.1,12.96,52.7,55.9,57.3,58.4,54.9,37,49,31,0.674,31.2,36.8,28.0,0,1.9,264,23,4.8,-0.00005,-0.00003,72.6,70.3,10,0,.,.,16.05,0.00,0.00
15min,AgWx,beryljct,423,02JUL2019:00:15:00,58.1,12.95,53.0,54.0,54.5,55.6,53.8,49,53,45,0.741,35.9,37.4,34.5,0.899,2.4,294,12,5.5,-0.00003,-0.00000,72.3,70.3,10,0,.,.,16.05,0.00,0.00
15min,AgWx,beryljct,423,02JUL2019:00:30:00,57.3,12.95,54.2,54.8,56.0,57.6,53.3,42,54,38,0.649,33.3,37.2,31.6,0,0.8,7.4,11,2.4,-0.00024,-0.00033,71.9,70.3,10,0,.,.,16.05,0.00,0.00
15min,AgWx,beryljct,423,02JUL2019:00:45:00,56.4,12.93,55.1,54.3,53.9,55.7,52.7,51,58,40,0.838,36.1,40.0,31.5,1.184,0.9,260,34,2.0,-0.00023,-0.00032,71.6,70.2,10,0,.,.,16.05,0.00,0.00
15min,AgWx,beryljct,423,02JUL2019:01:00:00,55.7,12.93,57.2,55.2,55.1,57.0,53.9,52,61,41,0.701,37.4,41.0,33.4,0,0.4,251,0.0,1.6,-0.00030,-0.00044,71.3,70.2,10,0,.,.,16.05,0.00,0.00
15min,AgWx,beryljct,423,02JUL2019:01:15:00,54.9,12.91,50.7,50.6,53.5,56.4,50.2,57,71,41,0.808,38.5,42.1,33.0,1.381,0.7,251,0.1,1.8,-0.00025,-0.00036,71.0,70.1,10,0,.,.,16.06,0.00,0.00
15min,AgWx,beryljct,423,02JUL2019:01:30:00,54.0,12.91,53.7,51.8,50.6,51.8,50.0,55,68,38,0.531,34.6,40.2,26.7,1.162,0.2,251,0.0,1.2,-0.00031,-0.00049,70.7,70.1,9,0,.,.,16.06,0.00,0.00
15min,AgWx,beryljct,423,02JUL2019:01:45:00,53.5,12.91,54.7,55.8,54.1,56.2,51.9,38,45,33,0.580,29.0,32.7,27.2,1.622,1.4,251,0.1,2.7,-0.00013,-0.00016,70.4,70.0,10,0,.,.,16.06,0.00,0.00
15min,AgWx,beryljct,423,02JUL2019:02:00:00,53.1,12.91,52.0,53.8,53.0,55.8,50.3,53,70,37,0.626,36.1,41.1,29.7,0.417,0.6,251,0.1,1.8,-0.00027,-0.00039,70.1,69.9,10,0,.,.,16.06,0.00,0.00
15min,AgWx,beryljct,423,02JUL2019:02:15:00,52.6,12.88,50.6,51.1,51.6,53.6,49.8,58,68,46,0.695,37.3,39.9,33.3,3.573,1.5,184,48,4.2,-0.00015,-0.00019,69.8,69.9,10,0,.,.,16.06,0.00,0.00
15min,AgWx,beryljct,423,02JUL2019:02:30:00,52.1,12.89,47.2,53.1,51.2,53.6,49.6,58,71,46,0.777,36.6,40.8,32.7,1.271,1.3,201,0.8,3.9,-0.00017,-0.00023,69.6,69.8,9,0,.,.,16.06,0.00,0.00
15min,AgWx,beryljct,423,02JUL2019:02:45:00,51.5,12.89,49.1,49.2,50.7,52.9,49.1,60,65,45,0.745,37.0,39.3,32.2,0.636,1.0,193,2.4,3.5,-0.00020,-0.00028,69.3,69.7,10,0,.,.,16.06,0.00,0.00
15min,AgWx,beryljct,423,02JUL2019:03:00:00,50.9,12.88,48.0,48.3,48.6,49.4,47.8,67,70,62,0.771,38.3,39.4,36.9,3.288,3.8,163,22,5.9,-0.00001,0.00001,69.0,69.6,9,0,.,.,16.07,0.01,0.00
15min,AgWx,beryljct,423,02JUL2019:03:15:00,50.2,12.87,47.3,46.3,46.2,48.2,45.2,68,71,65,0.763,36.3,37.8,35.2,3.793,4.0,206,7.1,5.0,-0.00000,0.00002,68.7,69.6,10,0,.,.,16.07,0.00,0.00
15min,AgWx,beryljct,423,02JUL2019:03:30:00,49.6,12.87,47.9,48.8,48.5,49.8,46.4,66,71,61,0.792,37.6,39.0,36.8,0.022,3.5,230,1.4,5.7,-0.00001,0.00001,68.5,69.5,10,0,.,.,16.07,0.00,0.00
15min,AgWx,beryljct,423,02JUL2019:03:45:00,49.4,12.86,47.6,48.7,48.9,51.2,47.4,65,70,56,0.822,37.7,40.0,34.6,0.504,0.9,220,5.7,2.1,-0.00022,-0.00030,68.2,69.4,10,0,.,.,16.07,0.00,0.00
15min,AgWx,beryljct,423,02JUL2019:04:00:00,49.2,12.87,51.0,49.6,50.8,55.8,48.3,64,72,40,0.829,38.6,40.4,31.7,3.661,0.8,232,13,3.7,-0.00024,-0.00035,67.9,69.3,10,0,.,.,16.07,0.00,0.00
15min,AgWx,beryljct,423,02JUL2019:04:15:00,49.3,12.86,49.6,49.1,49.6,51.8,48.4,60,68,51,0.686,36.2,39.5,34.2,0,2.3,166,9.8,10.8,-0.00007,-0.00007,67.7,69.2,9,0,.,.,16.07,0.00,0.00
15min,AgWx,beryljct,423,02JUL2019:04:30:00,49.1,12.86,46.6,46.5,48.4,50.0,46.4,60,68,51,0.726,35.2,36.8,32.6,0,1.5,129,7.9,7.4,-0.00015,-0.00019,67.4,69.1,10,0,.,.,16.07,0.00,0.00
15min,AgWx,beryljct,423,02JUL2019:04:45:00,48.6,12.85,46.5,46.6,46.8,47.7,45.7,63,72,56,0.632,34.7,37.4,32.2,3.639,1.9,145,16,3.7,-0.00012,-0.00014,67.2,69.0,10,0,.,.,16.07,0.00,0.00
15min,AgWx,beryljct,423,02JUL2019:05:00:00,48.1,12.85,43.5,43.8,45.9,47.6,43.8,62,79,49,0.770,33.4,38.1,29.4,2.302,3.4,240,44,4.6,-0.00000,0.00002,67.0,68.9,10,0,.,.,16.07,0.00,0.00
15min,AgWx,beryljct,423,02JUL2019:05:15:00,47.5,12.85,42.6,43.1,44.3,45.5,43.1,66,79,60,0.587,33.5,37.7,30.9,4.056,5.0,355,23,6.8,0.00005,0.00008,66.8,68.8,9,0,.,.,16.07,0.00,0.00
15min,AgWx,beryljct,423,02JUL2019:05:30:00,46.8,12.85,48.2,45.0,43.6,45.0,42.7,62,65,59,0.600,31.4,32.0,30.9,3.486,3.6,344,6.5,5.3,0.00029,0.00050,66.5,68.7,9,0,.,.,16.06,0.00,0.00
15min,AgWx,beryljct,423,02JUL2019:05:45:00,46.8,12.85,44.1,45.3,46.9,48.0,45.3,54,62,49,0.638,31.0,33.1,29.5,0.811,3.4,346,5.6,5.8,0.00036,0.00062,66.3,68.6,10,0,.,.,16.06,0.00,0.00
15min,AgWx,beryljct,423,02JUL2019:06:00:00,46.4,12.83,42.3,42.7,44.3,45.2,42.7,66,72,62,0.672,33.6,34.5,32.6,3.003,1.0,264,47,3.5,0.00009,0.00015,66.1,68.5,10,0,.,.,16.07,0.00,0.00
15min,AgWx,beryljct,423,02JUL2019:06:15:00,45.7,12.83,42.3,43.0,42.4,43.2,41.7,70,76,63,0.601,33.5,34.9,31.4,2.28,2.1,200,11,3.6,0.00014,0.00024,65.9,68.4,10,2,.,.,16.07,0.00,0.00
15min,AgWx,beryljct,423,02JUL2019:06:30:00,45.0,12.84,43.9,42.7,42.5,43.4,42.1,68,72,62,0.619,32.7,34.0,30.6,0,1.1,193,0.5,3.1,0.00016,0.00023,65.6,68.3,9,14,.,.,16.07,0.00,0.00
15min,AgWx,beryljct,423,02JUL2019:06:45:00,44.9,12.86,44.0,43.4,43.1,43.5,42.7,66,70,62,0.669,32.5,34.3,31.1,0.68,1.6,193,0.7,2.6,0.00036,0.00047,65.4,68.2,9,47,.,.,16.06,0.00,0.00
15min,AgWx,beryljct,423,02JUL2019:07:00:00,45.5,12.89,46.7,46.6,45.2,46.8,43.5,59,71,52,0.708,31.7,35.8,29.4,0,0.5,192,0.4,1.4,0.00044,0.00050,65.2,68.1,10,82,.,.,16.06,0.00,0.00
15min,AgWx,beryljct,423,02JUL2019:07:15:00,47.2,12.85,45.6,46.0,46.1,46.6,45.3,74,83,65,0.807,38.2,40.4,35.5,1.447,0.9,273,56,2.1,0.00060,0.00068,65.0,68.0,9,120,.,.,16.06,0.00,0.00
15min,AgWx,beryljct,423,02JUL2019:07:30:00,49.4,12.87,49.9,49.6,47.7,49.6,45.9,68,78,58,0.701,37.7,39.6,35.2,0,0.2,322,1.3,1.7,0.00078,0.00085,64.8,67.9,10,163,.,.,16.06,0.00,0.00
15min,AgWx,beryljct,423,02JUL2019:07:45:00,51.8,12.87,53.3,52.5,50.5,52.5,49.6,69,75,58,0.877,40.8,42.4,35.7,0.592,0.0,327,0.0,0.6,0.00103,0.00110,64.6,67.8,10,208,.,.,16.06,0.00,0.00
15min,AgWx,beryljct,423,02JUL2019:08:00:00,54.7,12.9,55.3,54.6,53.6,54.7,52.5,60,65,57,0.881,40.1,41.7,38.3,0.943,1.4,70,55,2.8,0.00141,0.00160,64.5,67.7,9,258,.,.,16.05,0.00,0.00
15min,AgWx,beryljct,423,02JUL2019:08:15:00,57.4,12.9,59.1,58.5,56.3,58.5,54.7,52,60,47,0.819,39.0,41.3,37.6,0,1.1,95,2.6,2.1,0.00173,0.00195,64.3,67.6,9,307,.,.,16.05,0.00,0.00
15min,AgWx,beryljct,423,02JUL2019:08:30:00,60.3,12.93,61.2,60.9,59.7,60.9,58.5,44,55,36,0.659,37.8,42.8,33.9,2.17,2.3,146,6.4,3.3,0.00221,0.00260,64.2,67.5,9,358,.,.,16.05,0.00,0.00
15min,AgWx,beryljct,423,02JUL2019:08:45:00,63.1,12.97,63.9,63.1,62.2,63.1,60.9,34,36,31,0.651,33.5,35.9,31.0,1.184,1.8,134,8.6,3.1,0.00257,0.00298,64.2,67.4,10,409,.,.,16.05,0.00,0.00
15min,AgWx,beryljct,423,02JUL2019:09:00:00,66.1,13.07,65.6,66.3,64.9,66.4,63.2,31,33,30,0.687,33.9,35.6,32.5,1.535,0.6,118,1.2,2.3,0.00280,0.00308,64.2,67.3,10,460,.,.,16.04,0.00,0.00
15min,AgWx,beryljct,423,02JUL2019:09:15:00,69.0,13.23,69.8,69.0,67.0,69.0,66.2,34,37,31,0.779,37.9,39.9,34.7,1.03,1.8,112,8.4,3.0,0.00333,0.00380,64.2,67.2,10,510,.,.,16.04,0.00,0.00
15min,AgWx,beryljct,423,02JUL2019:09:30:00,71.7,13.39,73.1,72.0,70.2,72.0,68.9,33,36,30,0.839,39.4,42.3,36.1,2.938,1.9,125,7.7,4.1,0.00376,0.00429,64.3,67.1,9,558,.,.,16.03,0.00,0.00
15min,AgWx,beryljct,423,02JUL2019:09:45:00,74.6,13.66,77.4,77.2,74.2,77.2,72.2,30,34,25,0.811,40.7,44.8,38.1,6.752,3.3,130,15,8.6,0.00440,0.00520,64.5,67.0,9,605,.,.,16.03,0.00,0.00
15min,AgWx,beryljct,423,02JUL2019:10:00:00,77.3,13.99,78.9,79.4,78.6,79.8,77.2,22,26,17,0.721,36.6,40.4,30.7,7.081,9.0,154,15,12.7,0.00579,0.00764,64.7,66.9,9,651,.,.,16.02,0.00,0.00
15min,AgWx,beryljct,423,02JUL2019:10:15:00,79.5,13.97,80.4,79.7,79.9,80.5,79.4,19,22,16,0.697,33.7,37.5,30.3,12.8,10.5,158,12,15.5,0.00641,0.00860,64.9,66.8,9,695,.,.,16.02,0.00,0.00
15min,AgWx,beryljct,423,02JUL2019:10:30:00,81.2,13.9,79.2,81.2,80.6,81.5,79.8,19,25,17,0.758,34.9,41.5,31.1,8.09,9.3,172,17,14.3,0.00656,0.00861,65.2,66.7,9,736,.,.,16.02,0.00,0.00
15min,AgWx,beryljct,423,02JUL2019:10:45:00,82.5,13.89,80.2,80.6,80.9,81.8,80.1,20,26,17,0.856,36.3,42.8,32.3,6.094,9.2,188,16,16.2,0.00678,0.00882,65.4,66.7,9,775,.,.,16.02,0.00,0.00
15min,AgWx,beryljct,423,02JUL2019:11:00:00,82.8,13.96,80.4,81.0,79.7,81.2,78.7,24,27,20,0.816,39.8,42.9,35.8,8.68,9.9,209,15,15.5,0.00691,0.00894,65.8,66.6,9,812,.,.,16.02,0.00,0.00
15min,AgWx,beryljct,423,02JUL2019:11:15:00,83.2,13.89,82.5,80.6,80.6,82.0,79.8,24,29,18,0.819,39.9,45.7,34.8,8.72,8.0,211,20,12.7,0.00699,0.00880,66.1,66.6,9,847,.,.,16.02,0.00,0.00
15min,AgWx,beryljct,423,02JUL2019:11:30:00,83.6,13.86,80.3,80.9,81.7,82.6,80.7,19,23,16,0.758,35.4,40.0,32.0,18.3,13.7,186,13,19.0,0.00804,0.01079,66.5,66.5,9,881,.,.,16.02,0.00,0.00
15min,AgWx,beryljct,423,02JUL2019:11:45:00,83.8,13.88,81.7,82.3,81.4,82.3,80.6,20,25,16,0.660,36.9,42.0,30.9,13.9,12.1,191,11,18.3,0.00798,0.01050,67.0,66.5,9,910,.,.,16.02,0.00,0.00
15min,AgWx,beryljct,423,02JUL2019:12:00:00,84.2,13.95,81.4,82.0,81.7,82.7,80.9,20,24,16,0.701,36.4,41.6,31.8,15.52,12.6,191,10,19.9,0.00824,0.01085,67.3,66.4,9,939,.,.,16.01,0.00,0.00
15min,AgWx,beryljct,423,02JUL2019:12:15:00,84.3,13.49,80.4,80.7,81.7,82.6,80.6,21,25,17,0.799,37.4,42.1,33.4,14.1,13.2,201,15,17.1,0.00841,0.01110,67.8,66.5,9,962,.,.,16.02,0.01,0.00
15min,AgWx,beryljct,423,02JUL2019:12:30:00,83.9,13.49,79.8,80.0,80.7,81.4,80.0,22,27,18,0.833,37.9,42.8,33.6,15.13,14.3,208,15,20.5,0.00849,0.01124,68.3,66.5,9,982,.,.,16.02,0.00,0.00
15min,AgWx,beryljct,423,02JUL2019:12:45:00,83.6,13.49,80.6,81.1,81.1,82.3,80.0,21,25,18,0.794,37.6,41.4,33.7,10.87,13.6,203,13,20.3,0.00857,0.01129,68.8,66.5,9,998,.,.,16.02,0.00,0.00
15min,AgWx,beryljct,423,02JUL2019:13:00:00,83.8,13.47,81.2,81.9,81.8,83.5,80.6,21,26,16,0.820,38.1,42.7,32.5,15.26,13.3,200,19,20.9,0.00867,0.01136,69.3,66.5,9,1011,.,.,16.02,0.00,0.00
15min,AgWx,beryljct,423,02JUL2019:13:15:00,84.1,13.45,81.4,81.5,81.5,82.5,80.9,23,30,18,0.774,40.0,46.8,33.8,10.9,11.0,211,17,16.9,0.00841,0.01074,69.7,66.5,9,1019,.,.,16.02,0.00,0.00
15min,AgWx,beryljct,423,02JUL2019:13:30:00,84.5,13.44,85.1,84.6,82.9,84.6,81.5,18,21,15,0.664,35.4,39.1,31.4,12.5,16.3,185,14,23.9,0.00924,0.01245,70.3,66.6,9,1024,.,.,16.02,0.00,0.00
15min,AgWx,beryljct,423,02JUL2019:13:45:00,84.9,13.46,81.8,82.1,82.4,84.6,81.7,20,22,15,0.699,37.1,40.6,32.4,16.97,14.4,201,13,19.3,0.00896,0.01186,70.8,66.7,9,1027,.,.,16.02,0.00,0.00
15min,AgWx,beryljct,423,02JUL2019:14:00:00,84.9,13.44,81.6,81.8,81.8,82.3,81.1,23,26,19,0.825,39.9,43.7,35.4,12.41,11.8,213,12,20.5,0.00857,0.01103,71.3,66.7,9,1025,.,.,16.02,0.00,0.00
15min,AgWx,beryljct,423,02JUL2019:14:15:00,84.9,13.44,81.2,81.7,81.9,83.0,81.3,22,26,19,0.830,39.8,43.7,35.9,10.28,12.1,215,17,17.8,0.00855,0.01106,71.8,66.8,9,1017,.,.,16.02,0.00,0.00
15min,AgWx,beryljct,423,02JUL2019:14:30:00,85.1,13.52,83.5,82.6,82.7,84.0,81.5,20,25,17,0.833,38.1,42.4,33.7,17.34,12.2,204,18,19.8,0.00863,0.01122,72.3,66.9,9,1007,.,.,16.02,0.01,0.00
15min,AgWx,beryljct,423,02JUL2019:14:45:00,84.9,13.46,82.0,81.8,81.7,82.7,81.0,23,27,19,0.897,39.9,44.2,35.5,15.21,12.9,227,14,19.6,0.00847,0.01105,72.8,67.1,9,994,.,.,16.03,0.00,0.00
15min,AgWx,beryljct,423,02JUL2019:15:00:00,84.7,13.41,81.2,82.9,82.2,83.5,81.2,22,27,16,0.827,39.2,43.9,32.7,10.28,14.4,212,15,22.7,0.00858,0.01139,73.3,67.2,9,977,.,.,16.02,0.00,0.00
15min,AgWx,beryljct,423,02JUL2019:15:15:00,84.6,13.43,81.0,82.2,82.1,82.7,81.5,21,24,18,0.834,38.0,41.6,35.1,10.74,13.8,218,16,19.0,0.00841,0.01118,73.7,67.3,9,955,.,.,16.02,0.00,0.00
15min,AgWx,beryljct,423,02JUL2019:15:30:00,84.7,13.38,85.7,83.8,82.4,84.4,81.2,21,25,16,0.679,38.4,42.8,32.5,15.41,13.5,215,22,19.3,0.00827,0.01099,74.2,67.4,9,936,.,.,16.02,0.00,0.00
15min,AgWx,beryljct,423,02JUL2019:15:45:00,85.3,13.39,82.4,83.4,83.9,85.6,83.0,17,21,14,0.832,35.1,39.8,30.2,8,14.2,193,13,21.1,0.00846,0.01144,74.6,67.6,9,910,.,.,16.02,0.00,0.00
15min,AgWx,beryljct,423,02JUL2019:16:00:00,85.8,13.39,81.7,82.3,83.0,83.6,82.1,20,25,16,0.746,37.3,43.1,32.8,15.1,13.8,207,15,22.4,0.00804,0.01082,75.0,67.7,9,880,.,.,16.02,0.00,0.00
15min,AgWx,beryljct,423,02JUL2019:16:15:00,85.9,13.39,82.2,82.5,82.4,83.0,81.8,20,25,17,0.749,37.3,42.9,32.8,12.8,13.9,221,13,21.3,0.00781,0.01058,75.4,67.9,9,850,.,.,16.02,0.00,0.00
15min,AgWx,beryljct,423,02JUL2019:16:30:00,86.1,13.46,82.1,82.3,83.0,83.7,82.2,19,23,16,0.854,35.9,40.5,32.0,11.99,13.8,214,17,17.3,0.00761,0.01042,75.7,68.1,9,803,.,.,16.02,0.00,0.00
15min,AgWx,beryljct,423,02JUL2019:16:45:00,86.3,13.36,81.9,82.6,82.5,82.9,82.1,20,24,15,0.647,36.9,41.7,31.1,11.62,14.4,225,15,21.5,0.00748,0.01030,76.0,68.2,9,784,.,.,16.03,0.00,0.00
15min,AgWx,beryljct,423,02JUL2019:17:00:00,86.5,13.37,84.1,83.9,83.0,84.5,82.0,18,21,14,0.699,35.0,38.9,29.4,9.21,13.0,212,19,20.1,0.00723,0.00994,76.3,68.4,9,758,.,.,16.02,0.00,0.00
15min,AgWx,beryljct,423,02JUL2019:17:15:00,86.9,13.35,82.5,82.6,83.1,84.4,82.1,18,23,15,0.683,35.5,40.6,30.7,14.73,12.9,209,15,19.5,0.00687,0.00952,76.6,68.6,9,704,.,.,16.02,0.01,0.00
15min,AgWx,beryljct,423,02JUL2019:17:30:00,86.7,13.38,81.9,82.9,82.5,82.9,81.8,18,22,14,0.603,34.7,39.6,29.4,6.577,13.6,214,11,18.9,0.00647,0.00920,76.8,68.8,9,630,.,.,16.02,0.00,0.00
15min,AgWx,beryljct,423,02JUL2019:17:45:00,86.7,13.4,83.2,84.3,83.3,84.3,82.3,17,23,13,0.520,34.0,40.4,28.0,17.1,12.3,200,16,20.6,0.00599,0.00853,77.0,68.9,9,576,.,.,16.02,0.00,0.00
15min,AgWx,beryljct,423,02JUL2019:18:00:00,86.4,13.4,83.5,83.2,83.6,84.6,82.8,14,17,12,0.609,29.7,33.5,26.9,18.94,15.5,185,11,23.5,0.00575,0.00882,77.1,69.1,9,439,.,.,16.02,0.00,0.00
15min,AgWx,beryljct,423,02JUL2019:18:15:00,85.5,13.43,79.6,80.2,81.7,83.3,80.2,16,19,14,0.616,31.9,34.9,29.1,12.36,13.4,207,13,18.8,0.00461,0.00721,77.3,69.3,9,336,.,.,16.03,0.00,0.00
15min,AgWx,beryljct,423,02JUL2019:18:30:00,84.2,13.45,81.2,81.3,80.9,81.5,80.2,16,19,14,0.530,31.0,34.5,27.8,10.94,12.7,203,10,19.3,0.00429,0.00674,77.3,69.4,9,318,.,.,16.03,0.00,0.00
15min,AgWx,beryljct,423,02JUL2019:18:45:00,83.3,13.49,81.0,81.0,80.9,81.7,80.1,15,18,13,0.488,28.7,32.4,26.1,9.34,13.5,195,11,20.7,0.00382,0.00639,77.4,69.6,9,211,.,.,16.02,0.00,0.00
15min,AgWx,beryljct,423,02JUL2019:19:00:00,82.4,13.52,80.9,80.2,80.9,82.3,79.9,14,17,11,0.509,27.0,31.7,22.7,15.48,12.5,194,13,19.7,0.00339,0.00583,77.4,69.8,9,173,.,.,16.03,0.00,0.00
15min,AgWx,beryljct,423,02JUL2019:19:15:00,81.6,13.27,79.4,79.8,79.8,80.5,78.9,15,18,14,0.524,28.7,32.0,26.8,10.94,11.0,203,9.0,19.3,0.00288,0.00502,77.3,69.9,10,148,.,.,16.02,0.00,0.00
15min,AgWx,beryljct,423,02JUL2019:19:30:00,80.9,13.24,79.4,79.8,79.5,80.0,78.6,15,18,13,0.563,28.4,31.7,25.4,8.51,8.9,198,11,14.2,0.00225,0.00403,77.2,70.1,9,127,.,.,16.03,0.00,0.00
15min,AgWx,beryljct,423,02JUL2019:19:45:00,80.8,13.2,80.2,80.6,80.6,81.2,79.4,14,16,13,0.506,27.6,30.2,25.3,10.76,11.8,190,8.2,16.6,0.00312,0.00542,77.1,70.2,10,156,.,.,16.03,0.00,0.00
15min,AgWx,beryljct,423,02JUL2019:20:00:00,80.5,13.19,80.1,79.8,79.5,80.6,78.9,16,18,14,0.526,29.3,31.9,26.9,10.83,10.4,207,8.4,15.7,0.00249,0.00449,77.0,70.3,10,114,.,.,16.03,0.00,0.00
15min,AgWx,beryljct,423,02JUL2019:20:15:00,80.0,13.18,77.3,77.9,78.8,79.9,77.9,17,18,15,0.582,30.1,31.9,28.2,5.919,7.9,201,8.1,10.6,0.00132,0.00180,76.8,70.4,10,90,.,.,16.03,0.00,0.00
15min,AgWx,beryljct,423,02JUL2019:20:30:00,79.2,13.16,79.8,78.1,78.1,78.9,77.4,17,19,14,0.522,29.4,31.7,26.4,13.81,7.8,200,6.6,13.8,0.00124,0.00169,76.7,70.5,9,73,.,.,16.03,0.00,0.00
15min,AgWx,beryljct,423,02JUL2019:20:45:00,79.0,13.14,77.9,79.0,79.0,79.3,78.2,15,17,14,0.513,27.6,29.6,26.2,7.804,9.6,195,7.2,12.7,0.00150,0.00199,76.5,70.6,10,77,.,.,16.03,0.00,0.00
15min,AgWx,beryljct,423,02JUL2019:21:00:00,78.3,13.11,75.0,76.1,76.9,78.9,75.9,17,19,15,0.537,29.4,30.9,27.9,5.371,6.8,198,7.3,9.9,0.00098,0.00138,76.3,70.7,10,26,.,.,16.03,0.00,0.00
15min,AgWx,beryljct,423,02JUL2019:21:15:00,76.8,13.09,76.0,74.2,75.1,76.1,74.2,18,20,17,0.542,29.3,30.7,27.8,7.936,6.6,203,4.6,9.9,0.00084,0.00120,76.1,70.8,10,4,.,.,16.03,0.00,0.00
15min,AgWx,beryljct,423,02JUL2019:21:30:00,75.4,13.08,73.2,73.8,74.4,74.9,73.8,18,20,18,0.549,28.8,30.0,27.7,6.445,7.0,207,6.1,10.1,0.00087,0.00122,75.9,70.9,10,0,.,.,16.03,0.00,0.00
15min,AgWx,beryljct,423,02JUL2019:21:45:00,74.3,13.08,72.2,72.5,73.6,74.4,72.5,19,21,18,0.566,28.7,30.1,27.7,5.524,6.4,206,5.4,8.9,0.00079,0.00112,75.7,70.9,9,0,.,.,16.03,0.00,0.00
15min,AgWx,beryljct,423,02JUL2019:22:00:00,73.1,13.07,74.4,73.3,72.3,73.3,71.6,20,21,18,0.510,29.0,30.3,27.0,8.35,6.6,210,6.2,13.5,0.00077,0.00109,75.4,70.9,9,0,.,.,16.03,0.00,0.00
15min,AgWx,beryljct,423,02JUL2019:22:15:00,72.5,13.06,72.4,71.8,72.9,74.1,71.8,19,21,17,0.545,28.7,29.7,26.8,6.401,6.7,211,6.4,10.7,0.00081,0.00114,75.2,71.0,10,0,.,.,16.03,0.00,0.00
15min,AgWx,beryljct,423,02JUL2019:22:30:00,71.8,13.05,68.1,70.6,71.9,72.3,70.6,20,22,19,0.551,28.5,29.5,27.5,4.779,6.5,200,10,9.0,0.00076,0.00108,74.9,71.0,9,0,.,.,16.03,0.00,0.00
15min,AgWx,beryljct,423,02JUL2019:22:45:00,71.1,13.04,71.1,71.6,71.6,72.1,70.4,20,22,19,0.506,27.9,29.5,27.1,7.717,7.0,202,6.1,9.0,0.00081,0.00113,74.6,71.0,10,0,.,.,16.04,0.00,0.00
15min,AgWx,beryljct,423,02JUL2019:23:00:00,70.7,13.04,71.3,71.4,71.9,72.1,71.4,19,19,18,0.505,26.9,27.7,26.1,7.41,7.6,208,7.2,10.0,0.00089,0.00123,74.4,71.0,10,0,.,.,16.04,0.00,0.00
15min,AgWx,beryljct,423,02JUL2019:23:15:00,70.6,13.03,72.3,72.3,72.0,72.4,71.4,18,19,16,0.445,25.6,27.3,24.3,9.08,8.5,207,7.4,11.5,0.00100,0.00135,74.1,71.0,10,0,.,.,16.03,0.00,0.00
15min,AgWx,beryljct,423,02JUL2019:23:30:00,70.6,13.01,71.1,71.4,71.8,72.3,71.3,17,18,16,0.446,24.5,25.5,23.6,8.37,8.6,206,7.2,12.3,0.00101,0.00137,73.9,71.0,9,0,.,.,16.03,0.00,0.00
15min,AgWx,beryljct,423,02JUL2019:23:45:00,70.5,13,71.6,71.9,71.8,72.1,71.4,16,17,15,0.433,23.5,24.5,22.6,8.75,9.1,210,6.1,12.5,0.00107,0.00143,73.6,71.1,10,0,.,.,16.03,0.00,0.00
15min,AgWx,beryljct,423,03JUL2019:00:00:00,70.5,12.98,71.9,72.0,71.8,72.4,71.4,16,17,15,0.411,23.2,24.4,22.1,8.42,9.2,209,6.6,13.0,0.00109,0.00145,73.3,71.0,10,0,.,.,16.03,0.00,0.00
15min,AgWx,beryljct,423,03JUL2019:00:15:00,70.5,13,71.7,71.5,71.9,72.3,71.3,16,16,15,0.422,22.5,23.5,21.7,9.14,9.1,209,6.0,11.9,0.00109,0.00145,73.1,71.0,10,0,.,.,16.04,0.00,0.00
15min,AgWx,beryljct,423,03JUL2019:00:30:00,70.2,12.98,67.1,66.8,70.9,71.7,66.8,16,19,15,0.418,22.7,24.9,21.7,3.135,7.6,200,17,12.0,0.00091,0.00125,72.8,71.0,10,0,.,.,16.03,0.00,0.00
15min,AgWx,bigpiney,439,02JUL2019:00:00:00,54.3,12.79,48.9,48.8,48.7,50.1,47.5,73,76,69,0.845,40.4,40.8,40.0,2.039,3.4,233,9.8,5.7,-0.00006,-0.00006,52.6,49.3,54,0,0,0.0,3.76,0.00,0.00
15min,AgWx,bigpiney,439,02JUL2019:00:15:00,53.6,12.78,47.9,47.9,48.3,49.0,47.1,71,75,69,0.819,39.5,40.8,38.9,4.165,4.1,223,17,6.9,-0.00003,-0.00001,52.6,49.3,54,0,0,0.0,3.76,0.00,0.00
15min,AgWx,bigpiney,439,02JUL2019:00:30:00,53.1,12.77,49.9,49.3,48.5,49.4,47.9,72,73,69,0.826,39.8,40.1,39.3,4.713,4.5,247,7.9,6.2,-0.00001,0.00001,52.6,49.2,54,0,0,0.0,3.76,0.00,0.00
15min,AgWx,bigpiney,439,02JUL2019:00:45:00,52.7,12.75,48.8,48.4,49.0,49.6,48.4,71,73,69,0.829,40.0,40.7,39.6,3.047,3.7,236,12,4.8,-0.00004,-0.00003,52.6,49.3,54,0,0,0.0,3.76,0.00,0.00
15min,AgWx,bigpiney,439,02JUL2019:01:00:00,52.4,12.75,48.6,48.0,48.3,48.6,48.0,74,77,72,0.872,40.5,41.5,39.6,3.135,2.6,251,22,3.7,-0.00012,-0.00014,52.6,49.3,54,0,0,0.0,3.76,0.00,0.00
15min,AgWx,bigpiney,439,02JUL2019:01:15:00,52.1,12.74,45.0,46.5,48.2,48.7,46.5,73,77,71,0.832,40.1,40.9,39.6,2.872,2.2,262,45,4.0,-0.00014,-0.00017,52.6,49.3,54,0,0,0.0,3.76,0.00,0.00
15min,AgWx,bigpiney,439,02JUL2019:01:30:00,51.6,12.74,46.2,46.2,46.3,47.7,45.3,75,81,71,0.777,39.0,39.8,38.1,3.288,1.7,168,48,3.3,-0.00017,-0.00022,52.6,49.3,54,0,0,0.0,3.76,0.00,0.00
15min,AgWx,bigpiney,439,02JUL2019:01:45:00,51.0,12.72,46.7,46.8,46.0,46.8,45.7,74,75,73,0.798,38.2,38.8,37.8,1.535,2.8,236,14,4.5,-0.00010,-0.00011,52.5,49.3,54,0,0,0.0,3.76,0.00,0.00
15min,AgWx,bigpiney,439,02JUL2019:02:00:00,50.4,12.71,46.2,46.1,46.0,46.7,45.6,77,85,72,0.896,39.1,41.7,38.1,1.118,1.5,230,26,3.2,-0.00018,-0.00025,52.5,49.4,54,0,0,0.0,3.76,0.00,0.00
15min,AgWx,bigpiney,439,02JUL2019:02:15:00,49.9,12.71,44.9,44.6,45.1,46.1,44.6,86,89,84,0.878,41.3,41.8,40.9,2.587,1.9,274,21,2.9,-0.00019,-0.00025,52.4,49.3,54,0,0,0.0,3.76,0.00,0.00
15min,AgWx,bigpiney,439,02JUL2019:02:30:00,49.4,12.69,44.8,44.3,44.5,45.0,44.0,85,88,84,0.849,40.3,41.2,39.8,1.863,2.5,248,18,3.3,-0.00015,-0.00019,52.4,49.3,54,0,0,0.0,3.76,0.00,0.00
15min,AgWx,bigpiney,439,02JUL2019:02:45:00,49.0,12.68,45.7,45.4,45.8,47.9,44.3,80,87,71,0.786,39.9,41.4,38.3,2.258,1.1,245,19,2.3,-0.00022,-0.00031,52.3,49.4,54,0,0,0.0,3.76,0.00,0.00
15min,AgWx,bigpiney,439,02JUL2019:03:00:00,48.5,12.68,42.1,42.2,43.6,45.4,42.2,81,84,76,0.762,38.1,38.5,37.5,4.275,3.6,204,9.8,5.0,-0.00009,-0.00010,52.3,49.4,54,0,0,0.0,3.76,0.00,0.00
15min,AgWx,bigpiney,439,02JUL2019:03:15:00,48.0,12.67,43.9,43.8,42.9,43.9,42.0,82,84,78,0.762,37.7,38.3,37.3,1.951,2.6,229,13,4.7,-0.00013,-0.00016,52.3,49.4,54,0,0,0.0,3.76,0.00,0.00
15min,AgWx,bigpiney,439,02JUL2019:03:30:00,47.5,12.66,42.2,42.0,42.2,43.7,41.6,83,86,79,0.773,37.6,37.9,37.3,1.622,1.5,204,11,2.9,-0.00019,-0.00025,52.2,49.4,54,0,0,0.0,3.76,0.00,0.00
15min,AgWx,bigpiney,439,02JUL2019:03:45:00,47.0,12.64,42.2,41.4,41.5,41.9,41.2,86,87,86,0.771,37.6,38.0,37.3,0.636,2.0,215,21,3.3,-0.00017,-0.00022,52.1,49.5,54,0,0,0.0,3.76,0.00,0.00
15min,AgWx,bigpiney,439,02JUL2019:04:00:00,46.5,12.63,44.2,42.8,42.1,42.8,41.5,89,90,84,0.789,39.0,39.4,38.0,0.526,1.0,275,61,2.2,-0.00022,-0.00032,52.1,49.5,54,0,0,0.0,3.76,0.00,0.00
15min,AgWx,bigpiney,439,02JUL2019:04:15:00,46.1,12.63,42.6,42.0,42.6,43.7,41.6,83,87,77,0.787,37.8,38.4,37.0,0.811,1.1,225,25,2.4,-0.00022,-0.00030,52.0,49.4,54,0,0,0.0,3.76,0.00,0.00
15min,AgWx,bigpiney,439,02JUL2019:04:30:00,45.8,12.61,45.7,44.3,43.0,44.3,42.0,82,88,73,0.737,38.0,38.9,36.1,0.11,1.2,247,9.5,2.5,-0.00021,-0.00029,52.0,49.5,54,0,0,0.0,3.76,0.00,0.00
15min,AgWx,bigpiney,439,02JUL2019:04:45:00,45.6,12.61,45.0,44.4,43.7,44.4,43.2,83,87,74,0.778,38.8,39.8,36.5,1.03,0.6,257,25,1.9,-0.00025,-0.00038,51.9,49.5,54,0,0,0.0,3.76,0.00,0.00
15min,AgWx,bigpiney,439,02JUL2019:05:00:00,45.4,12.6,42.4,42.5,43.4,44.5,42.5,82,84,78,0.764,38.2,38.8,37.6,1.096,0.6,355,14,2.2,-0.00025,-0.00037,51.8,49.5,54,0,0,0.0,3.76,0.00,0.00
15min,AgWx,bigpiney,439,02JUL2019:05:15:00,45.1,12.58,42.0,41.5,41.6,42.5,41.2,85,87,82,0.768,37.4,37.9,37.1,0,1.2,348,13,2.2,-0.00021,-0.00029,51.8,49.5,54,0,0,0.0,3.76,0.00,0.00
15min,AgWx,bigpiney,439,02JUL2019:05:30:00,44.9,12.57,41.9,41.4,41.4,41.7,40.9,87,89,85,0.782,37.9,38.3,37.5,0.57,0.5,267,42,1.9,-0.00025,-0.00038,51.7,49.5,54,0,0,0.0,3.76,0.00,0.00
15min,AgWx,bigpiney,439,02JUL2019:05:45:00,44.7,12.56,40.8,40.9,41.5,41.8,40.9,90,91,89,0.785,38.9,39.4,38.3,1.315,0.7,234,20,1.8,-0.00024,-0.00035,51.6,49.5,54,2,0,0.0,3.76,0.00,0.00
15min,AgWx,bigpiney,439,02JUL2019:06:00:00,44.6,12.58,42.5,41.8,41.2,41.8,40.8,90,91,89,0.796,38.5,38.9,38.2,1.556,1.6,220,12,2.4,-0.00015,-0.00020,51.6,49.4,54,20,0,0.0,3.76,0.00,0.00
15min,AgWx,bigpiney,439,02JUL2019:06:15:00,45.0,12.59,44.8,44.3,43.4,44.4,41.9,89,89,87,0.864,40.3,41.1,38.7,1.841,1.4,251,23,2.5,-0.00024,-0.00023,51.5,49.5,54,44,0,0.0,3.76,0.00,0.00
15min,AgWx,bigpiney,439,02JUL2019:06:30:00,45.8,12.59,45.4,45.1,44.9,45.2,44.3,86,87,85,0.875,41.0,41.3,40.8,3.749,2.3,214,17,4.2,-0.00016,-0.00013,51.4,49.5,54,51,0,0.0,3.76,0.00,0.00
15min,AgWx,bigpiney,439,02JUL2019:06:45:00,46.7,12.58,44.5,44.3,44.6,45.1,44.3,88,89,86,0.882,41.3,41.6,41.0,2.631,2.3,191,13,4.3,0.00015,0.00020,51.3,49.5,54,32,0,0.0,3.76,0.00,0.00
15min,AgWx,bigpiney,439,02JUL2019:07:00:00,47.2,12.67,46.1,45.9,44.7,45.9,44.3,87,89,85,0.911,41.2,42.1,41.0,2.017,2.0,219,38,4.1,0.00022,0.00028,51.3,49.5,54,65,0,0.0,3.76,0.00,0.00
15min,AgWx,bigpiney,439,02JUL2019:07:15:00,47.8,12.67,46.9,46.6,46.1,46.7,45.8,88,88,87,0.951,42.7,43.4,42.1,3.179,3.2,21,23,5.0,0.00039,0.00047,51.2,49.5,54,109,0,0.0,3.76,0.00,0.00